Flag for U.S.A. Weather past 2 weeks in Seattle, Washington, U.S.A.

Now
46 °F

Passing clouds.


Feels Like: 43 °F
Forecast: 40 / 44 °F
Wind: 6 mph from Southeast

Location: Seattle Boeing Field

Current Time: Dec 28, 2014 at 12:56:44 AM

Latest Report: Dec 27, 2014 at 11:53 PM


Visibility: 10 mi

Pressure: 30.08 "Hg

Humidity: 73%

Dew point: 38 °F

Location of SeattleLocation

Historic Weather in Seattle — Graph

°F

Seattle temperature yesterday

Maximum temperature yesterday: 52 °F (at 1:53 PM)
Minimum temperature yesterday: 42 °F (at 2:53 AM)
Average temperature yesterday: 46 °F

Past Weeks' High & Low Weather Summary

 TemperatureHumidityPressure
High58 °F (Dec 14, 2:53 PM)96% (Dec 23, 4:53 PM)30.40 "Hg (Dec 23, 4:53 PM)
Low38 °F (Dec 14, 7:53 AM)27% (Dec 14, 3:53 PM)29.45 "Hg (Dec 20, 6:53 PM)
Average48 °F73%30.02 "Hg
* Reported Dec 12 10:53 PM — Dec 27 10:53 PM, Seattle, Weather by CustomWeather, © 2014

Note: Actual official high and low records may vary slightly from our data, if they occured in-between our weather recording intervals... More about our weather records

Advertising

Seattle weather history for previous 24 hours

 ConditionsComfort  
Time TempWeatherWind HumidityBarometerVisibility
10:53 PM
Dec 27
47 °FPassing clouds.6 mph74%30.07 "Hg10 mi
9:53 PM46 °FPartly cloudy.6 mph73%30.06 "Hg10 mi
8:53 PM47 °FPassing clouds.No wind71%30.06 "Hg10 mi
7:53 PM46 °FPassing clouds.7 mph73%30.05 "Hg10 mi
6:53 PM45 °FPartly cloudy.8 mph74%30.05 "Hg10 mi
5:53 PM47 °FPassing clouds.9 mph77%30.06 "Hg10 mi
4:53 PM48 °FOvercast.3 mph74%30.06 "Hg10 mi
3:53 PM50 °FMostly cloudy.8 mph71%30.05 "Hg10 mi
2:53 PM52 °FBroken clouds.9 mph69%30.03 "Hg10 mi
1:53 PM52 °FBroken clouds.12 mph69%30.02 "Hg10 mi
12:53 PM50 °FPartly sunny.14 mph77%30.04 "Hg10 mi
11:53 AM50 °FMostly cloudy.12 mph77%30.07 "Hg10 mi
10:53 AM50 °FCloudy.14 mph77%30.10 "Hg10 mi
10:02 AM48 °FMostly cloudy.15 mph87%30.12 "Hg10 mi
8:53 AM48 °FOvercast.14 mph83%30.12 "Hg5 mi
8:00 AM45 °FMore clouds than sun.10 mph81%30.13 "Hg10 mi
6:53 AM43 °FFog.9 mph86%30.16 "Hg6 mi
5:53 AM42 °FOvercast.9 mph85%30.19 "Hg10 mi
4:53 AM42 °FLight rain. Overcast.10 mph85%30.22 "Hg8 mi
4:01 AM43 °FLight rain. Overcast.8 mph81%30.26 "Hg8 mi
3:53 AM42 °FLight rain. Mostly cloudy.7 mph85%30.26 "Hg8 mi
2:53 AM42 °FLight rain. Overcast.6 mph82%30.28 "Hg8 mi
1:53 AM43 °FOvercast.5 mph76%30.29 "Hg10 mi
12:53 AM43 °FOvercast.3 mph76%30.31 "Hg10 mi
Weather by CustomWeather, © 2014

See weather overviewHow to use our weather pages